Location: Quedlinburg
(51.7921°N, 11.1414°E)
Time: 08:44:36
(UTC+02:00)

SO-50 - Pass Details

Date: 16 March 2026
Orbit: 567 x 673 km, 64.6° (Epoch: 13 April)

Event Time Altitude Azimuth Distance (km) Brightness Sun altitude
Rises 22:58:44 0° 308° (NW) 3,017 ? -36.6°
Reaches altitude 10° 23:01:40 10° 325° (NW) 2,111 ? -36.8°
Enters shadow 23:04:06 18° 355° (N) 1,628 ? -37.0°
